Vertical_Velocity
-1 1 2 -2 -0 -6 -0 -3 -8 17 -6 21 5 -0 -0 4 -1 -4 3 1 -4 -2 -2 3 0 -0 1 -3 -1 -0 6 -0 -0 -1 -2 1 -1 -0 -7 -8 9 0 2 -4 -17 40 -12
-2 4 1 1 -2 2 -5 -4 7 -8 0 10 -2 -3 1 -5 3 -4 3 -3 2 -2 -4 3 -1 2 -3 -1 -6 -0 2 1 3 -1 1 1 -13 7 -16 11 -4 3 6 2 -14 25 4
6 2 -3 2 -2 2 5 -4 0 1 12 4 4 15 8 -2 1 3 -2 2 -0 -1 -1 2 -1 -1 -3 -1 1 1 -0 -1 1 -3 1 1 11 5 12 10 5 -1 2 8 -11 18 15
4 0 -2 1 -0 1 1 2 -1 -3 -2 4 5 -5 13 10 2 -3 -3 6 0 -1 -2 -2 0 -2 0 -0 2 3 1 1 0 1 -5 -1 -7 -1 -4 8 6 11 13 6 16 9 12
1 4 3 3 2 0 1 1 -2 -9 9 2 6 -10 32 13 5 -6 2 2 3 -3 -2 0 -0 0 -6 -1 -3 0 -2 -2 5 2 -3 0 14 30 35 3 10 9 -0 -4 30 1 1
-3 -2 -3 -2 7 0 2 3 3 -0 -11 5 -3 -1 9 23 4 -8 -1 7 0 1 -5 1 -3 -4 -3 2 2 0 -6 -3 0 -7 3 0 8 2 5 6 2 -5 5 -8 0 -3 -2
-4 -5 6 -2 -1 -0 1 0 6 2 -6 -8 -6 8 21 19 1 -2 0 10 -2 -3 -4 0 0 -5 -1 -1 -1 -2 -4 -1 -4 6 7 0 1 -5 1 1 -3 7 7 16 13 7 -11
-1 2 -4 -3 -2 -2 -3 0 1 3 6 -7 -2 -3 9 33 -3 0 4 5 0 -3 -4 1 -1 -5 -2 0 1 -1 -3 -4 0 -0 4 -1 -4 -6 -2 -2 -4 5 -0 6 -3 6 -4
-2 -3 1 -1 2 -3 -1 2 1 6 1 -0 -2 4 -1 20 1 2 4 -1 4 -1 -5 2 -3 -4 0 -1 4 2 7 3 0 -2 1 2 -1 -3 -8 -8 -6 6 3 5 -15 -12 -3
-4 7 -0 4 -2 -2 2 -5 2 3 4 7 -3 -0 2 10 -2 3 5 -2 4 1 -5 -0 -4 -1 -1 -3 -6 2 -4 -7 -2 -1 -2 1 -4 -3 -4 -1 5 2 8 1 -3 -6 -2
-0 -0 -0 -7 -12 3 -2 -3 1 1 8 6 1 -0 -1 1 7 5 3 -6 5 -3 -5 -1 -3 -3 -1 -3 -1 11 14 10 8 -2 -3 -2 -4 -7 6 4 7 1 5 5 1 -3 -4
-1 0 3 1 -3 -2 -2 -6 -3 0 1 3 4 -1 3 -1 2 4 4 -2 3 -5 -12 -0 -1 -2 -2 -4 -2 -2 -0 1 -5 1 -1 13 -2 2 -4 -0 -1 12 -6 -4 4 -12 -0
1 2 0 -7 0 -9 -5 -7 -2 1 -2 4 6 -1 8 0 3 5 3 4 -3 -4 -2 -1 -2 -3 -1 -3 -2 -2 4 5 -3 2 -3 11 9 10 2 -1 3 7 4 0 -1 -2 -1
-1 -1 -4 -5 -6 -8 -5 -4 -3 -6 -2 2 -3 7 0 13 6 1 1 11 -4 1 0 -1 -3 2 -1 -2 -0 1 3 -1 3 6 -5 -1 0 -0 3 3 -7 8 -7 -4 -1 -1 -0
-1 -8 -1 -2 -8 -6 -3 -2 6 -4 -9 -6 1 -3 6 8 9 7 2 1 -5 0 0 -3 0 1 -2 0 -1 -0 2 -3 -2 -2 0 -3 -3 7 1 -1 4 2 -9 0 -7 0 -1
-1 1 -0 -0 -8 -7 -7 5 3 -5 19 -1 1 5 2 9 6 4 8 -2 -6 0 1 1 -1 1 -4 1 -3 -0 5 1 -1 -1 -1 -1 -5 2 -2 2 -9 8 2 -1 1 -3 -0
-0 3 -3 -1 -5 -4 -2 5 4 -4 1 42 10 9 3 10 10 3 1 -0 -3 -3 -0 -2 -1 -0 -1 -4 -2 -3 -1 1 1 2 2 0 -0 -0 4 2 1 1 0 -4 -2 -4 -3
1 -4 1 1 -2 -1 -1 -1 -1 6 -2 9 21 11 4 11 6 3 4 -0 -3 -1 0 -5 3 1 2 -2 -4 2 -1 -1 -2 -4 -3 -1 -1 -1 -2 4 4 -4 -2 -2 -2 2 -1
-2 4 4 1 -2 -1 3 -1 -2 1 -1 -3 20 8 20 9 -1 2 3 0 -2 1 -2 -1 -3 4 2 -5 -3 -2 -3 -3 -2 -1 -2 -2 -1 -3 -4 -4 -3 -3 -3 -3 -2 -1 -0
-2 1 3 -1 -4 6 1 2 -1 -4 13 2 10 13 8 5 5 2 5 -3 0 -1 2 1 -1 2 -2 5 0 -3 -3 -4 -0 -1 0 0 -2 -3 -9 -1 -2 -3 4 2 -2 -3 -1
-0 -0 3 -1 -0 -4 -4 -3 2 8 13 43 1 5 -9 -8 -5 4 1 1 -1 -2 2 3 5 -2 -2 -3 1 1 3 -1 2 1 0 0 -3 1 0 -2 -2 -1 -3 -4 -0 6 -3
1 -1 1 3 2 -4 1 2 15 8 7 -2 5 5 5 6 2 10 1 -4 -2 3 -4 -4 -0 -2 -1 -1 -4 -10 -8 -10 -6 -5 -2 1 -0 2 3 2 2 2 -2 -3 -2 -4 -4
2 -2 1 3 5 -2 -4 2 9 3 3 6 8 1 3 2 2 1 -7 -1 -3 6 2 4 4 -2 -1 -2 3 -3 1 1 -6 -2 -5 1 2 1 0 -1 1 -4 1 4 2 -2 0
3 -0 3 1 3 -1 -1 5 1 -14 11 7 10 1 3 -3 -1 5 -0 1 -2 0 -3 -2 -2 1 2 2 0 2 -1 2 1 1 4 -1 0 1 -2 -2 -6 -1 -3 -1 -1 -0 -2
2 -0 2 4 -4 12 14 -1 -3 6 -0 2 6 3 -5 1 6 6 2 1 1 0 -0 3 2 1 -2 3 4 -4 3 -0 -2 2 1 2 2 -2 0 -2 -2 -1 -2 -2 5 -2 -1
-1 -2 5 2 2 2 -0 -1 -0 4 1 -3 9 6 -2 0 -1 3 2 3 -3 -3 1 -2 6 2 1 5 1 -2 -4 0 -0 -4 0 -1 2 4 1 -1 -2 -3 -1 2 3 -12 -5
-0 -3 -1 -0 -3 7 5 -5 3 3 -5 1 9 -1 1 2 3 -2 0 -1 3 0 -2 1 -1 -1 1 -1 0 -3 1 2 -3 -3 -6 -2 -1 0 -0 -2 -5 -0 2 -1 -1 -1 -0
1 -0 -1 -5 7 9 13 3 -2 -3 1 2 7 -2 -2 2 -1 -2 1 2 -1 1 -4 -4 3 4 3 0 2 -2 -0 2 -3 0 -3 -5 -5 -4 1 0 -11 -4 2 -1 1 -1 -3
0 5 -0 -1 -4 6 -1 -3 2 -1 -3 6 2 -2 2 1 -0 0 1 2 2 0 3 2 -7 -3 -1 -1 -1 -1 -2 0 -1 -4 -1 -7 -9 -3 -6 -4 -4 -4 -1 1 1 1 -1
Height
3135 3131 3128 3124 3119 3117 3114 3109 3105 3102 3098 3096 3093 3088 3084 3079 3071 3067 3062 3058 3052 3049 3046 3042 3040 3037 3033 3029 3027 3024 3022 3019 3017 3016 3014 3013 3014 3018 3020 3025 3031 3033 3039 3044 3049 3052 3061
3128 3126 3123 3118 3115 3112 3108 3106 3101 3098 3093 3090 3087 3085 3080 3075 3069 3063 3059 3055 3049 3045 3041 3038 3036 3034 3027 3025 3020 3019 3017 3016 3015 3013 3011 3011 3012 3015 3020 3023 3028 3032 3038 3043 3048 3050 3054
3121 3118 3114 3111 3108 3104 3102 3099 3096 3092 3089 3086 3082 3079 3075 3071 3066 3057 3054 3051 3047 3042 3037 3035 3033 3028 3024 3022 3017 3016 3015 3013 3012 3011 3009 3008 3009 3012 3017 3022 3027 3033 3037 3042 3045 3046 3054
3114 3110 3107 3105 3100 3099 3095 3092 3090 3088 3084 3081 3077 3075 3070 3066 3061 3057 3050 3047 3044 3039 3035 3033 3030 3025 3020 3019 3015 3012 3010 3011 3009 3007 3007 3007 3009 3013 3017 3022 3027 3033 3036 3041 3043 3044 3052
3104 3101 3098 3096 3093 3089 3087 3086 3083 3083 3079 3076 3069 3069 3064 3061 3056 3053 3047 3044 3040 3037 3033 3031 3028 3022 3018 3015 3010 3006 3004 3007 3007 3006 3006 3007 3008 3011 3012 3020 3026 3030 3031 3040 3035 3045 3052
3098 3094 3090 3086 3083 3081 3078 3076 3075 3074 3073 3069 3067 3063 3060 3056 3053 3050 3046 3041 3038 3035 3032 3029 3026 3023 3018 3013 3008 2999 3000 3004 3005 3006 3007 3008 3009 3010 3010 3019 3024 3029 3036 3041 3037 3044 3051
3091 3087 3082 3078 3074 3072 3069 3066 3065 3065 3063 3065 3061 3059 3056 3053 3049 3045 3044 3038 3039 3034 3030 3029 3025 3022 3018 3014 3011 3008 3006 3006 3007 3007 3008 3009 3010 3015 3019 3022 3025 3032 3038 3034 3040 3046 3050
3083 3079 3074 3071 3066 3063 3060 3057 3055 3054 3054 3056 3054 3052 3049 3047 3044 3041 3040 3035 3034 3033 3029 3027 3023 3021 3018 3016 3013 3010 3009 3009 3008 3008 3010 3014 3016 3019 3020 3023 3026 3028 3033 3039 3042 3045 3052
3076 3071 3066 3061 3056 3053 3049 3047 3043 3044 3043 3045 3047 3045 3043 3042 3038 3036 3036 3033 3032 3030 3028 3026 3023 3021 3020 3019 3014 3012 3010 3009 3009 3010 3011 3014 3017 3021 3022 3026 3029 3032 3035 3039 3046 3050 3055
3068 3062 3056 3051 3047 3042 3037 3034 3032 3031 3033 3034 3038 3037 3037 3036 3035 3031 3032 3030 3030 3028 3027 3026 3023 3022 3021 3019 3016 3013 3011 3012 3012 3014 3015 3017 3019 3021 3025 3027 3030 3033 3036 3038 3042 3047 3052
3056 3051 3047 3042 3040 3035 3029 3025 3020 3019 3021 3023 3027 3029 3031 3030 3028 3027 3030 3026 3028 3028 3030 3026 3024 3023 3021 3022 3019 3016 3013 3013 3015 3017 3020 3021 3021 3023 3024 3026 3031 3036 3038 3040 3044 3050 3056
3047 3040 3035 3030 3025 3023 3020 3016 3012 3008 3008 3012 3018 3023 3024 3025 3023 3024 3024 3023 3027 3030 3025 3022 3022 3023 3023 3022 3021 3019 3018 3017 3017 3017 3018 3020 3023 3026 3027 3031 3033 3037 3041 3043 3048 3056 3058
3037 3032 3028 3023 3018 3013 3009 3007 3004 3000 2998 3001 3008 3014 3016 3017 3017 3019 3021 3021 3026 3025 3023 3022 3021 3021 3022 3023 3022 3022 3021 3020 3021 3023 3022 3023 3025 3027 3030 3034 3038 3042 3042 3044 3051 3055 3058
3030 3025 3019 3015 3011 3005 3002 2999 2995 2992 2990 2992 2996 3003 3009 3010 3012 3013 3017 3019 3021 3018 3018 3019 3020 3021 3022 3023 3023 3023 3023 3023 3022 3024 3027 3029 3033 3032 3034 3035 3037 3042 3044 3043 3051 3055 3057
3022 3018 3013 3007 3003 2999 2995 2992 2987 2984 2980 2982 2989 2991 2998 3003 3004 3009 3012 3012 3014 3013 3016 3016 3020 3021 3020 3023 3023 3024 3024 3025 3026 3027 3029 3031 3034 3036 3037 3040 3044 3045 3046 3049 3052 3059 3062
3014 3011 3004 3000 2996 2992 2988 2985 2978 2975 2973 2978 2984 2989 2991 2997 2998 3002 3006 3007 3010 3011 3013 3015 3018 3019 3019 3020 3024 3024 3025 3028 3028 3029 3030 3032 3036 3040 3041 3042 3045 3047 3051 3053 3054 3059 3061
3006 3002 2999 2994 2990 2986 2982 2977 2973 2972 2973 2975 2982 2983 2986 2992 2993 2996 2998 3002 3005 3009 3011 3014 3018 3018 3020 3020 3023 3024 3026 3029 3030 3031 3032 3033 3035 3042 3043 3045 3046 3050 3051 3053 3055 3058 3061
2999 2996 2993 2988 2983 2979 2976 2973 2971 2970 2970 2975 2977 2979 2981 2985 2989 2988 2991 2997 3002 3006 3009 3012 3015 3018 3020 3022 3023 3026 3027 3029 3031 3033 3034 3035 3037 3040 3042 3044 3047 3050 3051 3055 3056 3061 3062
2993 2989 2986 2981 2977 2973 2970 2968 2967 2968 2969 2970 2974 2977 2977 2980 2981 2982 2987 2994 2999 3003 3007 3010 3014 3016 3019 3021 3024 3025 3027 3030 3032 3034 3036 3038 3039 3042 3046 3048 3046 3047 3051 3055 3057 3059 3061
2986 2983 2979 2975 2971 2967 2965 2962 2961 2960 2963 2965 2971 2974 2975 2975 2977 2980 2985 2990 2995 3000 3005 3009 3012 3016 3018 3020 3022 3025 3027 3030 3032 3035 3036 3039 3040 3041 3043 3043 3045 3047 3050 3053 3056 3058 3059
2980 2977 2973 2969 2965 2962 2959 2956 2954 2953 2957 2963 2964 2967 2968 2968 2972 2978 2983 2988 2992 2997 3003 3008 3011 3015 3016 3019 3021 3024 3027 3030 3033 3034 3036 3039 3039 3040 3042 3043 3044 3046 3048 3050 3052 3056 3058
2974 2970 2966 2963 2959 2957 2953 2949 2945 2948 2951 2956 2958 2963 2965 2966 2970 2976 2979 2984 2988 2994 3000 3005 3010 3013 3016 3019 3021 3023 3026 3030 3032 3033 3035 3036 3038 3039 3041 3043 3045 3047 3048 3050 3052 3053 3053
2967 2963 2960 2956 2953 2950 2946 2942 2940 2942 2946 2948 2953 2958 2966 2965 2968 2971 2975 2981 2986 2993 3000 3006 3010 3013 3017 3020 3023 3024 3027 3028 3029 3031 3033 3036 3037 3039 3041 3041 3041 3044 3044 3045 3046 3046 3048
2961 2957 2953 2950 2946 2943 2938 2936 2934 2939 2943 2945 2952 2958 2965 2965 2967 2970 2976 2981 2987 2993 2998 3004 3009 3013 3017 3020 3022 3024 3027 3028 3029 3030 3032 3035 3038 3039 3040 3041 3045 3040 3040 3041 3041 3042 3043
2955 2951 2947 2944 2941 2935 2932 2932 2934 2936 2941 2946 2954 2961 2963 2966 2969 2974 2978 2983 2988 2993 2998 3003 3008 3012 3016 3020 3022 3025 3028 3029 3030 3030 3032 3035 3037 3039 3040 3040 3040 3037 3037 3038 3038 3040 3039
2951 2946 2941 2938 2935 2933 2931 2932 2933 2935 2938 2947 2955 2961 2964 2966 2969 2974 2979 2984 2987 2992 2997 3002 3008 3011 3015 3018 3020 3022 3025 3027 3029 3031 3032 3034 3036 3039 3039 3040 3039 3036 3035 3035 3035 3035 3035
2946 2941 2936 2933 2930 2929 2931 2932 2931 2935 2941 2948 2956 2961 2965 2967 2970 2974 2979 2984 2989 2993 2997 3002 3006 3010 3015 3016 3019 3021 3022 3025 3026 3028 3031 3034 3036 3037 3039 3039 3036 3035 3035 3034 3036 3038 3034
2942 2937 2933 2929 2926 2928 2930 2932 2933 2937 2944 2949 2957 2961 2965 2968 2972 2976 2981 2985 2989 2993 2997 3001 3007 3009 3013 3016 3018 3019 3020 3023 3025 3026 3027 3030 3034 3034 3037 3038 3035 3032 3033 3034 3033 3032 3033
2938 2934 2931 2928 2926 2927 2929 2931 2933 2938 2945 2951 2957 2961 2966 2971 2973 2977 2982 2986 2990 2994 2998 3000 3004 3007 3010 3014 3016 3018 3019 3020 3022 3024 3025 3028 3028 3029 3031 3030 3029 3030 3030 3031 3031 3031 3030